Flag for Brazil Weather past 2 weeks in Manaus, Amazonas, Brazil

Now
82 °F

Clear.


Feels Like: 88 °F
Forecast: 77 / 94 °F
Wind: 6 mph from East

Location: Manaus Aeroporto

Current Time: Aug 4, 2015 at 11:28:25 PM

Latest Report: Aug 4, 2015 at 11:00 PM


Visibility: 10 mi

Pressure: 29.92 "Hg

Humidity: 74%

Dew point: 73 °F

Location of ManausLocation

Historic Weather in Manaus — Graph

°F

Manaus temperature yesterday

Maximum temperature yesterday: 91 °F (at 2:00 PM)
Minimum temperature yesterday: 77 °F (at 5:00 AM)
Average temperature yesterday: 84 °F

Past Weeks' High & Low Weather Summary

 TemperatureHumidityPressure
High91 °F (Aug 2, 2:00 PM)94% (Jul 23, 4:00 AM)30.01 "Hg (Jul 23, 4:00 AM)
Low72 °F (Jul 23, 4:00 AM)52% (Jul 29, 3:00 PM)29.80 "Hg (Jul 27, 3:00 PM)
Average82 °F74%29.90 "Hg
* Reported Jul 20 10:00 PM — Aug 4 10:00 PM, Manaus, Weather by CustomWeather, © 2015

Note: Actual official high and low records may vary slightly from our data, if they occured in-between our weather recording intervals... More about our weather records

Advertising

Manaus weather history for previous 24 hours

 ConditionsComfort  
Time TempWeatherWind HumidityBarometerVisibility
10:00 PM
Tue, Aug 4
84 °FClear.6 mph66%29.92 "Hg10 mi
9:00 PM84 °FClear.5 mph66%29.89 "Hg10 mi
8:00 PM84 °FClear.6 mph66%29.86 "Hg10 mi
7:00 PM84 °FPassing clouds.5 mph66%29.86 "HgN/A
6:00 PM86 °FPassing clouds.5 mph59%29.83 "HgN/A
5:00 PM90 °FPassing clouds.6 mph52%29.86 "HgN/A
4:00 PM90 °FPassing clouds.5 mph52%29.86 "HgN/A
3:00 PM91 °FPassing clouds.5 mph52%29.89 "HgN/A
2:00 PM90 °FPassing clouds.8 mph55%29.89 "HgN/A
1:00 PM90 °FPassing clouds.7 mph59%29.92 "HgN/A
12:00 PM90 °FPassing clouds.7 mph59%29.95 "HgN/A
11:00 AM88 °FPassing clouds.7 mph62%29.98 "HgN/A
10:00 AM86 °FSunny.7 mph66%29.98 "Hg10 mi
9:00 AM84 °FSunny.9 mph70%29.98 "Hg10 mi
8:00 AM82 °FSunny.7 mph70%29.95 "Hg10 mi
7:00 AM79 °FSunny.8 mph79%29.95 "Hg10 mi
6:00 AM77 °FClear.7 mph83%29.92 "Hg10 mi
5:00 AM79 °FClear.9 mph79%29.89 "Hg10 mi
4:00 AM79 °FClear.7 mph79%29.89 "Hg10 mi
3:00 AM79 °FClear.5 mph79%29.89 "Hg10 mi
2:00 AM79 °FClear.6 mph79%29.89 "Hg10 mi
1:00 AM81 °FClear.6 mph79%29.92 "Hg10 mi
12:00 AM82 °FClear.6 mph74%29.92 "Hg10 mi
11:00 PM
Mon, Aug 3
82 °FClear.6 mph79%29.92 "Hg10 mi
Weather by CustomWeather, © 2015

See weather overviewHow to use our weather pages